Home > Weather > Wismar > Past weeks

Flag for Germany Weather for the Past 2 Weeks in Wismar, Mecklenburg-Western Pomerania, Germany

Now
37 °F

Light rain. Partly sunny.


Feels Like: 28 °F
Forecast: 33 / 37 °F
Wind: 15 mph from Northeast

Location: Luebeck-Blankensee

Current Time: Feb 14, 2016 at 4:53:12 PM

Latest Report: Feb 14, 2016 at 4:20 PM


Visibility: N/A

Pressure: 29.33 "Hg

Humidity: 93%

Dew point: 36 °F

Location of WismarLocation

Historic Weather in Wismar — Graph

°F

Wismar Temperature Yesterday

Maximum temperature yesterday: 39 °F (at 2:50 PM)
Minimum temperature yesterday: 30 °F (at 6:50 AM)
Average temperature yesterday: 34 °F

High & Low Weather Summary for the Past Weeks

 TemperatureHumidityPressure
High54 °F (Feb 7, 2:20 PM)100% (Feb 1, 6:50 AM)30.18 "Hg (Feb 1, 6:50 AM)
Low30 °F (Feb 13, 6:50 AM)54% (Feb 2, 3:20 PM)28.88 "Hg (Feb 9, 7:50 PM)
Average42 °F84%29.57 "Hg
* Reported Jan 30 3:20 PM — Feb 14 3:20 PM, Wismar, Weather by CustomWeather, © 2016

Note: Actual official high and low records may vary slightly from our data, if they occured in-between our weather recording intervals... More about our weather records

Advertising

Wismar Weather History for the Previous 24 Hours

 ConditionsComfort  
Time TempWeatherWind HumidityBarometerVisibility
3:20 PM
Sun, Feb 14
37 °FLight rain. Partly sunny.16 mph93%29.30 "HgN/A
2:50 PM37 °FLight rain. Partly sunny.14 mph87%29.30 "HgN/A
2:20 PM37 °FLight rain. Partly sunny.15 mph87%29.30 "HgN/A
1:50 PM37 °FLight rain. Partly sunny.13 mph93%29.30 "HgN/A
1:20 PM37 °FLight rain. Partly sunny.15 mph87%29.27 "Hg4 mi
12:50 PM37 °FLight rain. Partly sunny.14 mph87%29.27 "Hg4 mi
12:20 PM36 °FLight rain. Partly sunny.14 mph93%29.27 "Hg4 mi
11:50 AM36 °FLight rain. Partly sunny.15 mph93%29.27 "Hg4 mi
11:20 AM36 °FDrizzle. Partly sunny.15 mph93%29.27 "Hg4 mi
10:50 AM36 °FLight rain. Partly sunny.15 mph93%29.27 "Hg4 mi
10:20 AM36 °FLight rain. Partly sunny.14 mph87%29.27 "Hg4 mi
9:50 AM34 °FLight rain. Partly sunny.14 mph93%29.27 "Hg3 mi
9:20 AM34 °FLight rain. Fog.14 mph93%29.24 "Hg2 mi
8:20 AM34 °FFog.15 mph87%29.24 "Hg2 mi
7:50 AM34 °FFog.13 mph93%29.24 "Hg2 mi
7:20 AM34 °FFog.10 mph93%29.24 "Hg2 mi
6:50 AM34 °FFog.12 mph93%29.24 "Hg3 mi
7:50 PM
Sat, Feb 13
34 °FFog.7 mph93%29.33 "Hg2 mi
7:20 PM34 °FFog.9 mph100%29.33 "Hg2 mi
6:50 PM34 °FFog.9 mph100%29.33 "Hg2 mi
6:20 PM34 °FFog.9 mph100%29.33 "Hg1 mi
5:50 PM34 °FFog.10 mph100%29.36 "Hg1 mi
5:20 PM36 °FFog.10 mph93%29.36 "Hg2 mi
4:50 PM36 °FPartly sunny.10 mph93%29.36 "Hg4 mi
4:20 PM37 °FPartly sunny.10 mph87%29.36 "Hg5 mi
Weather by CustomWeather, © 2016

See weather overviewHow to use our weather pages